FW7384 Weather Reports


Display with metric or nautical units.
time (UTC)temp
F
wind
direction
speed
MPH
gust
MPH
rain 1hr
in
rain 24hr
in
rain mn
in
humidity
%
barometer
mb
20260504050503 47 168 2.0 4.0 0.00 0.19 0.19 99 1005.6
20260504050003 47 166 1.0 4.0 0.00 0.19 0.19 99 1005.6
20260504045503 47 166 1.0 4.0 0.00 0.19 0.19 99 1005.8
20260504045003 47 159 2.0 4.0 0.00 0.19 0.19 99 1005.4
20260504044503 47 173 2.0 4.0 0.00 0.19 0.19 99 1005.4
20260504044003 47 167 1.0 4.0 0.00 0.19 0.19 99 1005.6
20260504043503 47 173 2.0 4.0 0.00 0.19 0.19 99 1005.7
20260504043003 47 174 1.0 4.0 0.01 0.19 0.19 99 1005.7
20260504042503 47 146 1.0 4.0 0.01 0.19 0.19 99 1005.6
20260504042003 46 126 1.0 4.0 0.01 0.19 0.19 99 1005.6
20260504041503 46 115 2.0 4.0 0.01 0.19 0.19 99 1005.4
20260504041003 47 141 2.0 4.0 0.01 0.19 0.19 99 1005.7
20260504040503 46 161 2.0 4.0 0.01 0.19 0.19 99 1005.7
20260504040003 46 155 2.0 4.0 0.01 0.19 0.19 99 1005.9
20260504035714 46 150 2.0 4.0 0.01 0.19 0.19 99 1006.0
20260504035003 47 133 2.0 4.0 0.02 0.19 0.18 99 1005.9
20260504034503 46 165 1.0 3.0 0.02 0.19 0.18 99 1005.9
20260504034003 46 194 1.0 3.0 0.02 0.19 0.18 99 1005.9
20260504033503 46 207 1.0 3.0 0.02 0.19 0.18 99 1006.0
20260504033003 46 228 1.0 3.0 0.02 0.19 0.18 99 1006.1
20260504032503 46 294 1.0 3.0 0.02 0.19 0.18 99 1006.2
20260504032003 46 322 1.0 3.0 0.03 0.19 0.18 99 1005.9
20260504031503 47 202 1.0 3.0 0.02 0.18 0.18 99 1006.1
20260504031003 47 226 1.0 3.0 0.02 0.18 0.18 99 1006.0
20260504030503 47 144 1.0 4.0 0.02 0.18 0.17 99 1006.1
20260504030003 47 115 1.0 4.0 0.02 0.18 0.17 99 1006.1
20260504025713 47 78 1.0 3.0 0.02 0.18 0.17 99 1006.1
20260504025212 47 108 0.0 3.0 0.01 0.17 0.17 98 1006.2
20260504024503 47 143 0.0 1.0 0.01 0.17 0.17 98 1006.3
20260504024003 47 176 0.0 1.0 0.01 0.17 0.17 98 1006.4
20260504023503 47 195 0.0 2.0 0.01 0.17 0.16 98 1006.4
20260504023003 47 192 0.0 2.0 0.01 0.17 0.16 98 1006.3
20260504022503 47 142 0.0 1.0 0.01 0.16 0.16 98 1006.4
20260504022003 47 135 0.0 1.0 0.01 0.16 0.16 98 1006.4
20260504021503 47 227 0.0 1.0 0.01 0.16 0.16 98 1006.4
20260504021003 47 227 0.0 1.0 0.02 0.16 0.16 98 1006.5
20260504020503 47 0 0.0 0.0 0.03 0.16 0.16 98 1006.4
20260504020003 47 129 0.0 1.0 0.03 0.16 0.16 98 1006.4
20260504015503 47 141 0.0 1.0 0.04 0.16 0.16 98 1006.5
20260504015003 47 134 0.0 1.0 0.04 0.16 0.16 98 1006.5
20260504014713 47 91 0.0 2.0 0.04 0.16 0.16 98 1006.5
20260504014003 47 100 0.0 2.0 0.04 0.16 0.15 98 1006.5
20260504013503 47 119 0.0 1.0 0.04 0.16 0.15 98 1006.6
20260504013003 47 141 0.0 2.0 0.04 0.15 0.15 98 1006.7
20260504012713 47 155 0.0 2.0 0.04 0.15 0.15 98 1006.8
20260504012003 47 169 0.0 1.0 0.05 0.15 0.15 98 1006.9
20260504011503 47 172 0.0 1.0 0.07 0.15 0.15 98 1007.1
20260504011003 47 144 0.0 2.0 0.07 0.14 0.14 98 1006.8
20260504010713 47 146 1.0 2.0 0.08 0.14 0.13 98 1007.0
20260504010214 47 144 1.0 2.0 0.07 0.13 0.13 98 1007.1
20260504005503 47 0 0.0 0.0 0.07 0.13 0.12 98 1007.0
20260504005004 47 0 0.0 0.0 0.07 0.12 0.12 98 1007.2
20260504004503 47 0 0.0 0.0 0.07 0.12 0.11 98 1007.1
20260504004003 47 0 0.0 0.0 0.07 0.12 0.11 98 1007.2
20260504003503 47 214 0.0 2.0 0.07 0.11 0.11 98 1007.4
20260504003003 47 199 1.0 2.0 0.08 0.11 0.11 98 1007.4
20260504002712 47 181 1.0 2.0 0.08 0.11 0.11 98 1007.7
20260504002213 47 167 2.0 2.0 0.07 0.10 0.10 98 1007.5
20260504001504 47 168 1.0 2.0 0.06 0.08 0.08 98 1007.6
20260504001003 47 163 0.0 2.0 0.05 0.07 0.06 97 1007.5
20260504000503 47 173 0.0 1.0 0.04 0.06 0.06 97 1007.5
20260504000003 47 0 0.0 0.0 0.04 0.06 0.05 97 1007.5
20260503235503 47 32 0.0 1.0 0.04 0.05 0.05 97 1007.4
20260503235003 47 53 0.0 1.0 0.04 0.05 0.05 97 1007.4
20260503234503 47 64 0.0 1.0 0.03 0.05 0.04 97 1007.6
20260503234003 47 0 0.0 0.0 0.03 0.05 0.04 97 1007.6
20260503233503 47 269 0.0 1.0 0.03 0.04 0.04 97 1007.5
20260503233003 47 257 0.0 2.0 0.02 0.03 0.03 97 1007.6
20260503232503 47 243 0.0 2.0 0.02 0.03 0.03 97 1007.7
20260503232003 47 207 1.0 2.0 0.01 0.03 0.02 97 1007.7
20260503231503 47 175 1.0 2.0 0.01 0.02 0.02 97 1007.6
20260503231003 47 132 1.0 2.0 0.01 0.02 0.02 97 1007.7
20260503230503 47 99 0.0 2.0 0.01 0.02 0.01 97 1007.4
20260503230213 47 38 0.0 2.0 0.01 0.02 0.01 96 1007.3
20260503225503 47 329 1.0 3.0 0.02 0.02 0.01 96 1007.4
20260503225003 47 19 1.0 3.0 0.02 0.02 0.01 96 1007.5
20260503224503 47 28 1.0 3.0 0.02 0.02 0.01 96 1007.4
20260503224213 47 38 1.0 2.0 0.02 0.02 0.01 95 1007.6
20260503223503 47 19 0.0 2.0 0.01 0.01 0.01 95 1007.7
20260503223004 48 356 0.0 2.0 0.01 0.01 0.01 95 1007.9
20260503222503 48 97 0.0 1.0 0.01 0.01 0.01 94 1007.8
20260503222003 48 64 0.0 1.0 0.01 0.01 0.01 94 1007.8
20260503221503 48 19 0.0 1.0 0.01 0.01 0.01 94 1007.8
20260503221003 48 18 0.0 1.0 0.01 0.01 0.01 94 1007.7
20260503220503 48 131 0.0 2.0 0.01 0.01 0.00 93 1008.0
20260503220004 48 161 0.0 2.0 0.00 0.00 0.00 93 1008.1
20260503215503 47 149 0.0 2.0 0.00 0.00 0.00 94 1008.2
20260503215003 47 113 0.0 2.0 0.00 0.00 0.00 93 1008.1
20260503214503 47 70 0.0 2.0 0.00 0.00 0.00 93 1008.0
20260503214003 47 48 0.0 1.0 0.00 0.00 0.00 93 1008.2
20260503213503 47 35 0.0 2.0 0.00 0.00 0.00 93 1008.3
20260503213003 47 17 0.0 2.0 0.00 0.00 0.00 93 1008.3
20260503212503 47 25 0.0 2.0 0.00 0.00 0.00 93 1008.1
20260503212003 48 44 0.0 2.0 0.00 0.00 0.00 92 1008.3
20260503211503 48 57 0.0 1.0 0.00 0.00 0.00 92 1008.5
20260503211003 48 55 0.0 2.0 0.00 0.00 0.00 92 1008.3
20260503210713 48 48 0.0 2.0 0.00 0.00 0.00 92 1008.4
20260503210003 48 54 0.0 2.0 0.00 0.00 0.00 92 1008.4
20260503205503 48 75 0.0 2.0 0.00 0.00 0.00 91 1008.6
20260503205003 48 103 0.0 2.0 0.00 0.00 0.00 90 1008.7
20260503204503 49 190 0.0 2.0 0.00 0.00 0.00 91 1008.7
20260503204003 49 239 0.0 2.0 0.00 0.00 0.00 91 1008.9
20260503203503 49 200 1.0 3.0 0.00 0.00 0.00 90 1008.9
20260503203003 49 159 1.0 3.0 0.00 0.00 0.00 90 1008.9
20260503202503 49 143 1.0 2.0 0.00 0.00 0.00 90 1008.9
20260503202214 49 145 1.0 2.0 0.00 0.00 0.00 90 1008.9
20260503201503 49 135 1.0 2.0 0.00 0.00 0.00 90 1008.7
20260503201003 49 128 0.0 2.0 0.00 0.00 0.00 89 1008.9
20260503200503 49 178 0.0 2.0 0.00 0.00 0.00 89 1009.0
20260503200003 49 192 0.0 2.0 0.00 0.00 0.00 89 1008.9
20260503195503 49 185 0.0 2.0 0.00 0.00 0.00 88 1009.2
20260503195003 50 180 1.0 2.0 0.00 0.00 0.00 88 1009.0
20260503194503 50 184 1.0 2.0 0.00 0.00 0.00 88 1009.1
20260503194003 50 164 1.0 2.0 0.00 0.00 0.00 88 1009.1
20260503193713 50 156 1.0 2.0 0.00 0.00 0.00 88 1008.9
20260503193003 50 176 1.0 3.0 0.00 0.00 0.00 88 1009.3
20260503192504 50 171 1.0 5.0 0.00 0.00 0.00 88 1009.2
20260503192003 50 161 2.0 5.0 0.00 0.00 0.00 87 1009.4
20260503191503 51 147 2.0 5.0 0.00 0.00 0.00 87 1009.1
20260503191003 51 148 2.0 5.0 0.00 0.00 0.00 87 1009.0
20260503190503 51 167 2.0 4.0 0.00 0.00 0.00 87 1009.1
20260503190003 51 166 2.0 4.0 0.00 0.00 0.00 87 1009.1
20260503185503 51 167 2.0 3.0 0.00 0.00 0.00 86 1009.2
20260503185003 51 162 2.0 4.0 0.00 0.00 0.00 86 1009.2
20260503184503 51 163 2.0 4.0 0.00 0.00 0.00 86 1009.2
20260503184003 52 169 2.0 4.0 0.00 0.00 0.00 85 1009.1
20260503183503 52 178 2.0 4.0 0.00 0.00 0.00 85 1009.1
20260503183003 52 172 2.0 5.0 0.00 0.00 0.00 84 1009.3
20260503182503 52 170 3.0 5.0 0.00 0.00 0.00 84 1009.2
20260503182004 52 183 2.0 5.0 0.00 0.00 0.00 84 1009.1
20260503181504 53 179 3.0 5.0 0.00 0.00 0.00 83 1009.2
20260503181003 53 167 4.0 6.0 0.00 0.00 0.00 83 1009.4
20260503180503 53 174 4.0 7.0 0.00 0.00 0.00 82 1009.3
20260503180004 53 185 3.0 7.0 0.00 0.00 0.00 82 1009.4
20260503175503 54 174 4.0 7.0 0.00 0.00 0.00 81 1009.1
20260503175003 54 159 4.0 7.0 0.00 0.00 0.00 80 1009.2
20260503174503 54 158 4.0 6.0 0.00 0.00 0.00 80 1009.1
20260503171003 55 198 2.0 5.0 0.00 0.00 0.00 74 1009.1
20260503170504 55 210 2.0 4.0 0.00 0.00 0.00 73 1009.3
20260503150503 54 204 3.0 8.0 0.00 0.00 0.00 77 1010.0
20260503140213 53 192 3.0 7.0 0.00 0.00 0.00 81 1010.2
20260503131003 52 189 3.0 9.0 0.00 0.00 0.00 86 1010.7
20260503130503 52 191 3.0 9.0 0.00 0.00 0.00 86 1010.7
20260503110503 52 193 3.0 8.0 0.00 0.00 0.00 87 1010.8
20260503110214 52 202 3.0 7.0 0.00 0.00 0.00 87 1010.7
20260503090503 52 205 3.0 8.0 0.00 0.00 0.00 87 1010.7
20260503081503 53 196 3.0 7.0 0.00 0.00 0.00 84 1010.1
20260503081003 53 204 3.0 6.0 0.00 0.00 0.00 83 1010.2
20260503080714 54 213 2.0 5.0 0.00 0.00 0.00 83 1010.0
20260503072503 54 206 5.0 9.0 0.00 0.00 0.00 81 1009.9